Regional Weather Roundup
Issued by NWS Bismarck, ND

Home | Current Version | Previous Version | Text Only | Print | Product List | Glossary On
Versions: 1 2 3 4 5 6 7 8 9 10 11 12 13 14 15 16 17 18 19 20 21 22 23 24 25 26 27 28 29 30 31 32 33 34 35 36 37 38 39 40 41 42 43 44 45 46 47 48 49 50
000
ASUS43 KBIS 282059
RWRBIS

NWR BROADCAST TEXT
NATIONAL WEATHER SERVICE BISMARCK ND
400 PM CDT MON JUL 28 2014

NOTE: "FAIR" INDICATES FEW OR NO CLOUDS BELOW 12,000 FEET WITH NO
SIGNIFICANT WEATHER AND/OR OBSTRUCTIONS TO VISIBILITY.


CITY           SKY/WX    TMP DP  RH WIND       PRES   REMARKS
WILLISTON      MOSUNNY   80  50  34 VRB6      30.25F
MINOT          NOT AVBL
MINOT AFB      NOT AVBL
BISMARCK       MOSUNNY   75  48  38 NE6       30.29F
DICKINSON      NOT AVBL
GARRISON         N/A     73  56  54 VRB6      30.28F
HETTINGER ARPT NOT AVBL
JAMESTOWN      NOT AVBL
CARRINGTON     MOCLDY    68  55  64 N6        30.29F
HARVEY         CLOUDY    70  54  56 N3        30.28F
LINTON         FAIR      73  50  43 NW3       30.28F
$$

CITY           SKY/WX    TMP DP  RH WIND       PRES   REMARKS
GRAND FORKS    NOT AVBL
GRAND FORKS AF NOT AVBL
DEVILS LAKE    NOT AVBL
FARGO          NOT AVBL
CAVALIER       FAIR      73  54  49 N8        30.24S
GWINNER        CLOUDY    72  52  49 N7        30.28F
$$

CITY           SKY/WX    TMP DP  RH WIND       PRES   REMARKS
ABERDEEN       CLOUDY    71  50  47 NE10      30.27F
MOBRIDGE       MOSUNNY   76  51  41 NE9       30.26F
RAPID CITY     SUNNY     80  56  43 SE9       30.27F
GLASGOW        SUNNY     88  43  20 VRB3      30.20F
BAKER          SUNNY     85  47  26 VRB7      30.27F
$$

CITY           SKY/WX    TMP DP  RH WIND       PRES   REMARKS
BILLINGS       MOSUNNY   90  41  18 E9        30.21F
$$




USA.gov is the U.S. government's official web portal to all federal, state and local government web resources and services.